This is the latest recevied weather packets stored in our database for station/object DO8TBO-15. If no packets are shown the sender has not sent any weather packets the latest 10 day(s).
| Time | Temp. | Humidity | Pressure | Rain* | Wind** | Luminosity | Snow |
|---|---|---|---|---|---|---|---|
| 1777319718 | 12.78° C | - | 1019.8 hPa | 0 mm | - | - | - |
| 1777319174 | 12.78° C | - | 1019.9 hPa | 0 mm | - | - | - |
| 1777318570 | 13.33° C | - | 1019.9 hPa | 0 mm | - | - | - |
| 1777317966 | 13.33° C | - | 1019.8 hPa | 0 mm | - | - | - |
| 1777317362 | 13.89° C | - | 1019.7 hPa | 0 mm | - | - | - |
| 1777316759 | 13.89° C | - | 1019.6 hPa | 0 mm | - | - | - |
| 1777316154 | 14.44° C | - | 1019.6 hPa | 0 mm | - | - | - |
| 1777315550 | 14.44° C | - | 1019.5 hPa | 0 mm | - | - | - |
| 1777314947 | 15° C | - | 1019.5 hPa | 0 mm | - | - | - |
| 1777314343 | 15.56° C | - | 1019.3 hPa | 0 mm | - | - | - |
| 1777313740 | 16.11° C | - | 1019.2 hPa | 0 mm | - | - | - |
| 1777313136 | 17.22° C | - | 1019.1 hPa | 0 mm | - | - | - |
| 1777312532 | 18.89° C | - | 1019.1 hPa | 0 mm | - | - | - |
| 1777311929 | 19.44° C | - | 1018.9 hPa | 0 mm | - | - | - |
| 1777311325 | 21.11° C | - | 1019 hPa | 0 mm | - | - | - |
| 1777310721 | 21.67° C | - | 1018.9 hPa | 0 mm | - | - | - |
| 1777310118 | 21.67° C | - | 1018.8 hPa | 0 mm | - | - | - |
| 1777309574 | 21.67° C | - | 1018.8 hPa | 0 mm | - | - | - |
| 1777308970 | 22.78° C | - | 1018.9 hPa | 0 mm | - | - | - |
| 1777308367 | 22.78° C | - | 1018.9 hPa | 0 mm | - | - | - |
| 1777307763 | 23.89° C | - | 1019 hPa | 0 mm | - | - | - |
| 1777307159 | 23.89° C | - | 1019.2 hPa | 0 mm | - | - | - |
| 1777306555 | 22.78° C | - | 1019.2 hPa | 0 mm | - | - | - |
| 1777305951 | 24.44° C | - | 1019.1 hPa | 0 mm | - | - | - |
| 1777305348 | 23.89° C | - | 1019.2 hPa | 0 mm | - | - | - |
* Rain latest hour (hover to see other rain measurements)
** Current wind speed in m/s (hover to see current wind gust speed)